| time (UTC) | temp F | wind direction | speed MPH | gust MPH | rain 1hr in | rain 24hr in | rain mn in | humidity % | barometer mb |
| 20260505124811 | 54 | 0 | 7.0 | 11.0 | 0.00 | 0.00 | 0.00 | 54 | 1005.4 |
| 20260505124310 | 54 | 1 | 7.0 | 12.0 | 0.00 | 0.00 | 0.00 | 55 | 1005.5 |
| 20260505123812 | 54 | 359 | 7.0 | 12.0 | 0.00 | 0.00 | 0.00 | 55 | 1005.2 |
| 20260505123310 | 54 | 357 | 8.0 | 13.0 | 0.00 | 0.00 | 0.00 | 55 | 1005.1 |
| 20260505122810 | 54 | 0 | 9.0 | 13.0 | 0.00 | 0.00 | 0.00 | 55 | 1004.9 |
| 20260505122309 | 54 | 348 | 10.0 | 14.0 | 0.00 | 0.00 | 0.00 | 55 | 1004.8 |
| 20260505121807 | 54 | 359 | 10.0 | 14.0 | 0.00 | 0.00 | 0.00 | 56 | 1004.7 |
| 20260505121306 | 54 | 359 | 10.0 | 15.0 | 0.00 | 0.00 | 0.00 | 56 | 1004.7 |
| 20260505120805 | 54 | 1 | 10.0 | 15.0 | 0.00 | 0.00 | 0.00 | 55 | 1004.6 |
| 20260505120304 | 55 | 2 | 9.0 | 15.0 | 0.00 | 0.00 | 0.00 | 55 | 1004.9 |
| 20260505115805 | 55 | 0 | 9.0 | 14.0 | 0.00 | 0.00 | 0.00 | 55 | 1004.9 |
| 20260505115304 | 55 | 15 | 10.0 | 16.0 | 0.00 | 0.00 | 0.00 | 55 | 1004.9 |
| 20260505115033 | 55 | 6 | 10.0 | 16.0 | 0.00 | 0.00 | 0.00 | 56 | 1004.7 |
| 20260505114302 | 56 | 354 | 11.0 | 17.0 | 0.00 | 0.00 | 0.00 | 56 | 1004.5 |
| 20260505114032 | 56 | 1 | 12.0 | 19.0 | 0.00 | 0.00 | 0.00 | 57 | 1004.3 |
| 20260505113300 | 56 | 0 | 11.0 | 19.0 | 0.00 | 0.00 | 0.00 | 56 | 1004.4 |
| 20260505112802 | 57 | 358 | 12.0 | 18.0 | 0.00 | 0.00 | 0.00 | 56 | 1004.2 |
| 20260505112758 | 56 | 359 | 11.0 | 16.0 | 0.00 | 0.00 | 0.00 | 56 | 1004.3 |
| 20260505111758 | 57 | 1 | 13.0 | 18.0 | 0.00 | 0.00 | 0.00 | 55 | 1004.4 |
| 20260505111258 | 57 | 1 | 13.0 | 21.0 | 0.00 | 0.00 | 0.00 | 55 | 1004.3 |
| 20260505110756 | 58 | 359 | 14.0 | 21.0 | 0.00 | 0.00 | 0.00 | 54 | 1004.2 |
| 20260505110254 | 58 | 359 | 13.0 | 21.0 | 0.00 | 0.00 | 0.00 | 52 | 1004.1 |
| 20260505101751 | 64 | 353 | 13.0 | 19.0 | 0.00 | 0.00 | 0.00 | 30 | 1003.8 |
| 20260505101248 | 65 | 326 | 13.0 | 21.0 | 0.00 | 0.00 | 0.00 | 28 | 1003.6 |
| 20260505100748 | 66 | 352 | 11.0 | 21.0 | 0.00 | 0.00 | 0.00 | 27 | 1003.4 |
| 20260505100249 | 66 | 359 | 9.0 | 20.0 | 0.00 | 0.00 | 0.00 | 27 | 1003.4 |
| 20260505095746 | 67 | 337 | 9.0 | 17.0 | 0.00 | 0.00 | 0.00 | 27 | 1003.3 |
| 20260505095246 | 68 | 333 | 12.0 | 28.0 | 0.00 | 0.00 | 0.00 | 25 | 1003.0 |
| 20260505094747 | 68 | 313 | 12.0 | 28.0 | 0.00 | 0.00 | 0.00 | 26 | 1002.6 |
| 20260505094511 | 68 | 347 | 10.0 | 18.0 | 0.00 | 0.00 | 0.00 | 25 | 1002.2 |
| 20260505093740 | 68 | 262 | 9.0 | 17.0 | 0.00 | 0.00 | 0.00 | 25 | 1002.0 |
| 20260505093241 | 68 | 264 | 9.0 | 19.0 | 0.00 | 0.00 | 0.00 | 25 | 1001.8 |
| 20260505092740 | 68 | 199 | 10.0 | 22.0 | 0.00 | 0.00 | 0.00 | 25 | 1001.6 |
| 20260505092239 | 68 | 257 | 11.0 | 22.0 | 0.00 | 0.00 | 0.00 | 25 | 1001.5 |
| 20260505091739 | 68 | 226 | 11.0 | 21.0 | 0.00 | 0.00 | 0.00 | 24 | 1001.5 |
| 20260505091236 | 68 | 249 | 9.0 | 17.0 | 0.00 | 0.00 | 0.00 | 24 | 1001.6 |
| 20260505091007 | 68 | 274 | 8.0 | 17.0 | 0.00 | 0.00 | 0.00 | 24 | 1001.7 |
| 20260505090842 | 68 | 237 | 7.0 | 15.0 | 0.00 | 0.00 | 0.00 | 24 | 1001.9 |
| 20260505085732 | 69 | 165 | 7.0 | 13.0 | 0.00 | 0.00 | 0.00 | 24 | 1001.9 |
| 20260505085232 | 69 | 257 | 8.0 | 15.0 | 0.00 | 0.00 | 0.00 | 24 | 1001.8 |
| 20260505085003 | 69 | 250 | 8.0 | 15.0 | 0.00 | 0.00 | 0.00 | 24 | 1001.8 |
| 20260505084457 | 69 | 236 | 8.0 | 13.0 | 0.00 | 0.00 | 0.00 | 24 | 1001.7 |
| 20260505083957 | 69 | 230 | 8.0 | 13.0 | 0.00 | 0.00 | 0.00 | 24 | 1001.7 |
| 20260505083227 | 69 | 234 | 8.0 | 15.0 | 0.00 | 0.00 | 0.00 | 24 | 1001.6 |
| 20260505082727 | 69 | 214 | 7.0 | 15.0 | 0.00 | 0.00 | 0.00 | 23 | 1001.6 |
| 20260505082225 | 69 | 246 | 8.0 | 14.0 | 0.00 | 0.00 | 0.00 | 23 | 1001.5 |
| 20260505081956 | 70 | 244 | 9.0 | 16.0 | 0.00 | 0.00 | 0.00 | 23 | 1001.5 |
| 20260505081225 | 70 | 198 | 9.0 | 16.0 | 0.00 | 0.00 | 0.00 | 23 | 1001.5 |
| 20260505080955 | 70 | 340 | 9.0 | 16.0 | 0.00 | 0.00 | 0.00 | 22 | 1001.6 |
| 20260505080224 | 71 | 260 | 9.0 | 16.0 | 0.00 | 0.00 | 0.00 | 22 | 1001.7 |
| 20260505075721 | 71 | 249 | 7.0 | 14.0 | 0.00 | 0.00 | 0.00 | 22 | 1001.7 |
| 20260505075219 | 71 | 306 | 6.0 | 14.0 | 0.00 | 0.00 | 0.00 | 22 | 1001.9 |
| 20260505074719 | 71 | 250 | 7.0 | 14.0 | 0.00 | 0.00 | 0.00 | 22 | 1001.8 |
| 20260505074218 | 71 | 249 | 7.0 | 15.0 | 0.00 | 0.00 | 0.00 | 22 | 1001.9 |
| 20260505073718 | 71 | 281 | 7.0 | 16.0 | 0.00 | 0.00 | 0.00 | 22 | 1002.0 |
| 20260505073218 | 71 | 257 | 7.0 | 16.0 | 0.00 | 0.00 | 0.00 | 22 | 1002.0 |
| 20260505072716 | 71 | 257 | 8.0 | 13.0 | 0.00 | 0.00 | 0.00 | 22 | 1002.1 |
| 20260505072216 | 71 | 251 | 8.0 | 14.0 | 0.00 | 0.00 | 0.00 | 22 | 1002.0 |
| 20260505071948 | 71 | 196 | 7.0 | 14.0 | 0.00 | 0.00 | 0.00 | 22 | 1002.2 |
| 20260505071214 | 71 | 240 | 6.0 | 14.0 | 0.00 | 0.00 | 0.00 | 22 | 1002.2 |
| 20260505070710 | 71 | 233 | 6.0 | 12.0 | 0.00 | 0.00 | 0.00 | 22 | 1002.2 |
| 20260505070205 | 71 | 240 | 6.0 | 12.0 | 0.00 | 0.00 | 0.00 | 22 | 1002.2 |
| 20260505065937 | 72 | 233 | 7.0 | 14.0 | 0.00 | 0.00 | 0.00 | 22 | 1002.3 |
| 20260505065204 | 72 | 267 | 8.0 | 14.0 | 0.00 | 0.00 | 0.00 | 21 | 1002.2 |
| 20260505064704 | 72 | 233 | 8.0 | 17.0 | 0.00 | 0.00 | 0.00 | 21 | 1002.3 |
| 20260505064204 | 72 | 233 | 8.0 | 17.0 | 0.00 | 0.00 | 0.00 | 21 | 1002.3 |
| 20260505063700 | 72 | 249 | 8.0 | 16.0 | 0.00 | 0.00 | 0.00 | 21 | 1002.2 |
| 20260505063159 | 72 | 248 | 9.0 | 16.0 | 0.00 | 0.00 | 0.00 | 21 | 1002.1 |
| 20260505062700 | 72 | 236 | 9.0 | 14.0 | 0.00 | 0.00 | 0.00 | 21 | 1002.1 |
| 20260505062159 | 72 | 238 | 8.0 | 14.0 | 0.00 | 0.00 | 0.00 | 21 | 1002.2 |
| 20260505061659 | 72 | 249 | 8.0 | 15.0 | 0.00 | 0.00 | 0.00 | 21 | 1002.2 |
| 20260505061429 | 73 | 221 | 8.0 | 15.0 | 0.00 | 0.00 | 0.00 | 21 | 1002.3 |
| 20260505060658 | 73 | 211 | 8.0 | 15.0 | 0.00 | 0.00 | 0.00 | 21 | 1002.3 |
| 20260505060159 | 73 | 245 | 8.0 | 15.0 | 0.00 | 0.00 | 0.00 | 21 | 1002.3 |
| 20260505055700 | 73 | 247 | 7.0 | 14.0 | 0.00 | 0.00 | 0.00 | 21 | 1002.3 |
| 20260505055656 | 73 | 245 | 6.0 | 13.0 | 0.00 | 0.00 | 0.00 | 21 | 1002.3 |
| 20260505054925 | 73 | 226 | 8.0 | 14.0 | 0.00 | 0.00 | 0.00 | 21 | 1002.3 |
| 20260505054152 | 73 | 263 | 8.0 | 14.0 | 0.00 | 0.00 | 0.00 | 21 | 1002.4 |
| 20260505053653 | 73 | 277 | 8.0 | 16.0 | 0.00 | 0.00 | 0.00 | 21 | 1002.4 |
| 20260505053151 | 73 | 226 | 8.0 | 16.0 | 0.00 | 0.00 | 0.00 | 21 | 1002.4 |
| 20260505052651 | 73 | 234 | 9.0 | 16.0 | 0.00 | 0.00 | 0.00 | 21 | 1002.4 |
| 20260505052152 | 73 | 1 | 9.0 | 16.0 | 0.00 | 0.00 | 0.00 | 21 | 1002.5 |
| 20260505051646 | 73 | 262 | 10.0 | 18.0 | 0.00 | 0.00 | 0.00 | 21 | 1002.4 |
| 20260505051144 | 73 | 243 | 11.0 | 18.0 | 0.00 | 0.00 | 0.00 | 20 | 1002.5 |
| 20260505050642 | 73 | 242 | 10.0 | 18.0 | 0.00 | 0.00 | 0.00 | 21 | 1002.5 |
| 20260505050139 | 73 | 249 | 11.0 | 18.0 | 0.00 | 0.00 | 0.00 | 21 | 1002.6 |
| 20260505041134 | 74 | 248 | 9.0 | 16.0 | 0.00 | 0.00 | 0.00 | 21 | 1002.5 |
| 20260505040905 | 74 | 280 | 8.0 | 16.0 | 0.00 | 0.00 | 0.00 | 21 | 1002.5 |
| 20260505040133 | 73 | 0 | 7.0 | 16.0 | 0.00 | 0.00 | 0.00 | 21 | 1002.4 |
| 20260505035632 | 73 | 253 | 7.0 | 16.0 | 0.00 | 0.00 | 0.00 | 21 | 1002.5 |
| 20260505035131 | 73 | 146 | 7.0 | 14.0 | 0.00 | 0.00 | 0.00 | 21 | 1002.6 |
| 20260505034631 | 73 | 248 | 8.0 | 14.0 | 0.00 | 0.00 | 0.00 | 21 | 1002.6 |
| 20260505034359 | 74 | 0 | 9.0 | 17.0 | 0.00 | 0.00 | 0.00 | 21 | 1002.6 |
| 20260505033628 | 74 | 240 | 11.0 | 17.0 | 0.00 | 0.00 | 0.00 | 21 | 1002.7 |
| 20260505033129 | 74 | 254 | 12.0 | 20.0 | 0.00 | 0.00 | 0.00 | 21 | 1002.6 |
| 20260505032626 | 74 | 194 | 12.0 | 20.0 | 0.00 | 0.00 | 0.00 | 21 | 1002.5 |
| 20260505032126 | 75 | 243 | 11.0 | 19.0 | 0.00 | 0.00 | 0.00 | 21 | 1002.4 |
| 20260505031628 | 74 | 295 | 10.0 | 21.0 | 0.00 | 0.00 | 0.00 | 21 | 1002.3 |
| 20260505031126 | 75 | 259 | 9.0 | 21.0 | 0.00 | 0.00 | 0.00 | 21 | 1002.3 |
| 20260505030627 | 75 | 205 | 9.0 | 18.0 | 0.00 | 0.00 | 0.00 | 21 | 1002.4 |
| 20260505030124 | 75 | 190 | 8.0 | 18.0 | 0.00 | 0.00 | 0.00 | 21 | 1002.4 |
| 20260505025621 | 75 | 248 | 7.0 | 15.0 | 0.00 | 0.00 | 0.00 | 21 | 1002.4 |
| 20260505025353 | 75 | 290 | 7.0 | 14.0 | 0.00 | 0.00 | 0.00 | 21 | 1002.4 |
| 20260505024623 | 75 | 260 | 7.0 | 14.0 | 0.00 | 0.00 | 0.00 | 21 | 1002.4 |
| 20260505024351 | 75 | 236 | 6.0 | 14.0 | 0.00 | 0.00 | 0.00 | 21 | 1002.4 |
| 20260505023619 | 76 | 235 | 8.0 | 16.0 | 0.00 | 0.00 | 0.00 | 20 | 1002.4 |
| 20260505023120 | 76 | 243 | 9.0 | 16.0 | 0.00 | 0.00 | 0.00 | 20 | 1002.3 |
| 20260505022620 | 76 | 173 | 9.0 | 18.0 | 0.00 | 0.00 | 0.00 | 20 | 1002.3 |
| 20260505022118 | 76 | 245 | 10.0 | 18.0 | 0.00 | 0.00 | 0.00 | 19 | 1002.3 |
| 20260505021618 | 77 | 241 | 11.0 | 22.0 | 0.00 | 0.00 | 0.00 | 19 | 1002.2 |
| 20260505021116 | 77 | 246 | 12.0 | 22.0 | 0.00 | 0.00 | 0.00 | 18 | 1002.1 |
| 20260505020615 | 77 | 263 | 11.0 | 20.0 | 0.00 | 0.00 | 0.00 | 17 | 1002.1 |
| 20260505020115 | 78 | 245 | 11.0 | 21.0 | 0.00 | 0.00 | 0.00 | 16 | 1002.1 |
| 20260505015845 | 78 | 233 | 10.0 | 21.0 | 0.00 | 0.00 | 0.00 | 15 | 1002.0 |
| 20260505015115 | 78 | 0 | 9.0 | 18.0 | 0.00 | 0.00 | 0.00 | 13 | 1002.1 |
| 20260505014613 | 79 | 236 | 11.0 | 19.0 | 0.00 | 0.00 | 0.00 | 13 | 1002.0 |
| 20260505014114 | 79 | 257 | 10.0 | 19.0 | 0.00 | 0.00 | 0.00 | 13 | 1002.0 |
| 20260505013610 | 79 | 217 | 11.0 | 20.0 | 0.00 | 0.00 | 0.00 | 13 | 1002.0 |
| 20260505013106 | 79 | 235 | 11.0 | 20.0 | 0.00 | 0.00 | 0.00 | 13 | 1001.9 |
| 20260505012601 | 79 | 263 | 9.0 | 20.0 | 0.00 | 0.00 | 0.00 | 13 | 1001.8 |
| 20260505012101 | 79 | 245 | 10.0 | 18.0 | 0.00 | 0.00 | 0.00 | 12 | 1001.9 |
| 20260505011603 | 79 | 247 | 10.0 | 20.0 | 0.00 | 0.00 | 0.00 | 12 | 1001.8 |
| 20260505011102 | 80 | 248 | 9.0 | 20.0 | 0.00 | 0.00 | 0.00 | 12 | 1001.7 |
| 20260505010602 | 80 | 238 | 10.0 | 18.0 | 0.00 | 0.00 | 0.00 | 12 | 1001.8 |
| 20260505010333 | 80 | 235 | 13.0 | 25.0 | 0.00 | 0.00 | 0.00 | 12 | 1001.9 |
| 20260505005831 | 80 | 246 | 13.0 | 25.0 | 0.00 | 0.00 | 0.00 | 11 | 1001.9 |
| 20260505005330 | 81 | 265 | 11.0 | 23.0 | 0.00 | 0.00 | 0.00 | 11 | 1001.8 |
| 20260505004559 | 81 | 198 | 13.0 | 29.0 | 0.00 | 0.00 | 0.00 | 11 | 1001.9 |
| 20260505004327 | 81 | 252 | 13.0 | 29.0 | 0.00 | 0.00 | 0.00 | 11 | 1001.9 |
| 20260505003556 | 81 | 246 | 13.0 | 26.0 | 0.00 | 0.00 | 0.00 | 11 | 1002.0 |
| 20260505003054 | 81 | 297 | 12.0 | 26.0 | 0.00 | 0.00 | 0.00 | 11 | 1001.9 |
| 20260505002552 | 82 | 203 | 12.0 | 25.0 | 0.00 | 0.00 | 0.00 | 11 | 1001.9 |
| 20260505002052 | 82 | 259 | 13.0 | 25.0 | 0.00 | 0.00 | 0.00 | 12 | 1002.1 |
| 20260505001823 | 82 | 250 | 14.0 | 25.0 | 0.00 | 0.00 | 0.00 | 12 | 1002.1 |
| 20260505001050 | 82 | 269 | 15.0 | 24.0 | 0.00 | 0.00 | 0.00 | 11 | 1002.2 |
| 20260505000550 | 82 | 188 | 15.0 | 26.0 | 0.00 | 0.00 | 0.00 | 11 | 1002.2 |
| 20260505000050 | 82 | 257 | 14.0 | 26.0 | 0.00 | 0.00 | 0.00 | 11 | 1002.1 |
| 20260504235819 | 82 | 252 | 14.0 | 24.0 | 0.00 | 0.00 | 0.00 | 10 | 1002.1 |
| 20260504235047 | 82 | 274 | 15.0 | 25.0 | 0.00 | 0.00 | 0.00 | 11 | 1002.1 |
| 20260504234546 | 82 | 281 | 15.0 | 25.0 | 0.00 | 0.00 | 0.00 | 11 | 1002.0 |
| 20260504234046 | 83 | 226 | 14.0 | 22.0 | 0.00 | 0.00 | 0.00 | 11 | 1002.1 |
| 20260504233546 | 83 | 259 | 14.0 | 23.0 | 0.00 | 0.00 | 0.00 | 11 | 1002.0 |
| 20260504233043 | 83 | 215 | 13.0 | 26.0 | 0.00 | 0.00 | 0.00 | 11 | 1002.1 |
| 20260504232544 | 83 | 232 | 14.0 | 26.0 | 0.00 | 0.00 | 0.00 | 11 | 1002.1 |
| 20260504232044 | 83 | 249 | 14.0 | 23.0 | 0.00 | 0.00 | 0.00 | 11 | 1002.1 |
| 20260504231542 | 83 | 293 | 14.0 | 24.0 | 0.00 | 0.00 | 0.00 | 10 | 1002.0 |
| 20260504231042 | 83 | 248 | 14.0 | 26.0 | 0.00 | 0.00 | 0.00 | 11 | 1002.0 |
| 20260504230542 | 84 | 258 | 12.0 | 26.0 | 0.00 | 0.00 | 0.00 | 10 | 1002.0 |
| 20260504230041 | 84 | 253 | 14.0 | 25.0 | 0.00 | 0.00 | 0.00 | 10 | 1001.9 |
| 20260504225539 | 84 | 250 | 17.0 | 32.0 | 0.00 | 0.00 | 0.00 | 10 | 1001.9 |
| 20260504225040 | 84 | 261 | 16.0 | 32.0 | 0.00 | 0.00 | 0.00 | 10 | 1001.8 |
| 20260504224537 | 84 | 238 | 15.0 | 25.0 | 0.00 | 0.00 | 0.00 | 10 | 1001.9 |
| 20260504224037 | 85 | 250 | 13.0 | 24.0 | 0.00 | 0.00 | 0.00 | 11 | 1001.8 |
| 20260504223537 | 85 | 324 | 12.0 | 22.0 | 0.00 | 0.00 | 0.00 | 13 | 1001.7 |
| 20260504223036 | 84 | 229 | 13.0 | 21.0 | 0.00 | 0.00 | 0.00 | 15 | 1001.8 |
| 20260504222535 | 85 | 219 | 14.0 | 27.0 | 0.00 | 0.00 | 0.00 | 17 | 1001.9 |
| 20260504222036 | 85 | 262 | 14.0 | 27.0 | 0.00 | 0.00 | 0.00 | 13 | 1002.0 |
| 20260504221533 | 85 | 280 | 12.0 | 26.0 | 0.00 | 0.00 | 0.00 | 14 | 1002.2 |
| 20260504221034 | 85 | 0 | 11.0 | 18.0 | 0.00 | 0.00 | 0.00 | 17 | 1002.3 |
| 20260504220532 | 84 | 248 | 11.0 | 19.0 | 0.00 | 0.00 | 0.00 | 16 | 1002.2 |
| 20260504220031 | 85 | 286 | 10.0 | 19.0 | 0.00 | 0.00 | 0.00 | 16 | 1002.3 |
| 20260504215532 | 84 | 285 | 9.0 | 17.0 | 0.00 | 0.00 | 0.00 | 18 | 1002.5 |
| 20260504215030 | 84 | 271 | 10.0 | 22.0 | 0.00 | 0.00 | 0.00 | 19 | 1002.5 |
| 20260504214530 | 84 | 223 | 13.0 | 22.0 | 0.00 | 0.00 | 0.00 | 18 | 1002.6 |
| 20260504214029 | 84 | 261 | 13.0 | 22.0 | 0.00 | 0.00 | 0.00 | 18 | 1002.8 |
| 20260504213800 | 84 | 229 | 12.0 | 22.0 | 0.00 | 0.00 | 0.00 | 19 | 1002.9 |
| 20260504213029 | 84 | 262 | 10.0 | 21.0 | 0.00 | 0.00 | 0.00 | 20 | 1003.1 |
| 20260504212529 | 84 | 233 | 9.0 | 18.0 | 0.00 | 0.00 | 0.00 | 19 | 1003.1 |
| 20260504212030 | 84 | 246 | 9.0 | 18.0 | 0.00 | 0.00 | 0.00 | 19 | 1003.3 |
| 20260504211529 | 84 | 0 | 10.0 | 21.0 | 0.00 | 0.00 | 0.00 | 18 | 1003.3 |
| 20260504211030 | 84 | 223 | 10.0 | 21.0 | 0.00 | 0.00 | 0.00 | 17 | 1003.5 |
| 20260504210529 | 85 | 311 | 9.0 | 17.0 | 0.00 | 0.00 | 0.00 | 18 | 1003.5 |
| 20260504210029 | 84 | 278 | 9.0 | 17.0 | 0.00 | 0.00 | 0.00 | 18 | 1003.7 |
| 20260504205738 | 84 | 0 | 10.0 | 20.0 | 0.00 | 0.00 | 0.00 | 17 | 1003.6 |
| 20260504205009 | 84 | 227 | 9.0 | 20.0 | 0.00 | 0.00 | 0.00 | 17 | 1003.7 |
| 20260504204506 | 85 | 266 | 9.0 | 20.0 | 0.00 | 0.00 | 0.00 | 16 | 1003.7 |
| 20260504204235 | 85 | 234 | 10.0 | 20.0 | 0.00 | 0.00 | 0.00 | 15 | 1003.9 |
| 20260504203504 | 85 | 274 | 10.0 | 19.0 | 0.00 | 0.00 | 0.00 | 15 | 1003.9 |
| 20260504203000 | 84 | 246 | 10.0 | 19.0 | 0.00 | 0.00 | 0.00 | 17 | 1003.9 |
| 20260504202730 | 85 | 235 | 12.0 | 23.0 | 0.00 | 0.00 | 0.00 | 17 | 1003.9 |
| 20260504201958 | 85 | 252 | 14.0 | 25.0 | 0.00 | 0.00 | 0.00 | 16 | 1004.1 |
| 20260504201457 | 84 | 269 | 13.0 | 25.0 | 0.00 | 0.00 | 0.00 | 17 | 1004.1 |
| 20260504200957 | 84 | 243 | 10.0 | 22.0 | 0.00 | 0.00 | 0.00 | 17 | 1004.1 |
| 20260504200458 | 84 | 272 | 9.0 | 19.0 | 0.00 | 0.00 | 0.00 | 17 | 1004.3 |
| 20260504200227 | 85 | 0 | 9.0 | 19.0 | 0.00 | 0.00 | 0.00 | 18 | 1004.1 |
| 20260504195455 | 85 | 252 | 8.0 | 19.0 | 0.00 | 0.00 | 0.00 | 18 | 1004.3 |
| 20260504195227 | 84 | 242 | 8.0 | 19.0 | 0.00 | 0.00 | 0.00 | 19 | 1004.5 |
| 20260504194726 | 85 | 233 | 8.0 | 16.0 | 0.00 | 0.00 | 0.00 | 20 | 1004.6 |
| 20260504193956 | 85 | 235 | 9.0 | 18.0 | 0.00 | 0.00 | 0.00 | 19 | 1004.7 |
| 20260504193455 | 84 | 231 | 8.0 | 18.0 | 0.00 | 0.00 | 0.00 | 21 | 1004.7 |
| 20260504192955 | 83 | 0 | 7.0 | 17.0 | 0.00 | 0.00 | 0.00 | 20 | 1004.9 |
| 20260504192455 | 83 | 243 | 8.0 | 18.0 | 0.00 | 0.00 | 0.00 | 21 | 1004.9 |
| 20260504191955 | 83 | 263 | 8.0 | 18.0 | 0.00 | 0.00 | 0.00 | 21 | 1005.1 |
| 20260504191456 | 83 | 287 | 9.0 | 18.0 | 0.00 | 0.00 | 0.00 | 21 | 1005.0 |
| 20260504190949 | 83 | 259 | 9.0 | 18.0 | 0.00 | 0.00 | 0.00 | 20 | 1005.2 |
| 20260504190449 | 82 | 262 | 10.0 | 17.0 | 0.00 | 0.00 | 0.00 | 23 | 1005.1 |
| 20260504185949 | 83 | 240 | 10.0 | 17.0 | 0.00 | 0.00 | 0.00 | 23 | 1005.2 |
| 20260504185447 | 83 | 240 | 10.0 | 17.0 | 0.00 | 0.00 | 0.00 | 23 | 1005.3 |
| 20260504184948 | 82 | 214 | 9.0 | 17.0 | 0.00 | 0.00 | 0.00 | 24 | 1005.4 |
| 20260504184445 | 83 | 229 | 8.0 | 17.0 | 0.00 | 0.00 | 0.00 | 24 | 1005.6 |
| 20260504183945 | 82 | 113 | 8.0 | 17.0 | 0.00 | 0.00 | 0.00 | 24 | 1005.6 |
| 20260504183445 | 82 | 247 | 8.0 | 17.0 | 0.00 | 0.00 | 0.00 | 24 | 1005.7 |
| 20260504183216 | 82 | 275 | 7.0 | 16.0 | 0.00 | 0.00 | 0.00 | 24 | 1005.7 |
| 20260504182445 | 82 | 262 | 8.0 | 16.0 | 0.00 | 0.00 | 0.00 | 25 | 1005.8 |
| 20260504181943 | 82 | 271 | 9.0 | 17.0 | 0.00 | 0.00 | 0.00 | 25 | 1006.2 |
| 20260504181441 | 82 | 266 | 9.0 | 18.0 | 0.00 | 0.00 | 0.00 | 26 | 1006.2 |
| 20260504181213 | 81 | 257 | 8.0 | 18.0 | 0.00 | 0.00 | 0.00 | 26 | 1006.3 |
| 20260504180712 | 82 | 307 | 8.0 | 15.0 | 0.00 | 0.00 | 0.00 | 25 | 1006.4 |
| 20260504175941 | 82 | 281 | 9.0 | 18.0 | 0.00 | 0.00 | 0.00 | 26 | 1006.6 |
| 20260504175443 | 81 | 304 | 10.0 | 18.0 | 0.00 | 0.00 | 0.00 | 25 | 1006.7 |
| 20260504175210 | 81 | 252 | 9.0 | 17.0 | 0.00 | 0.00 | 0.00 | 26 | 1006.7 |
| 20260504174439 | 81 | 306 | 9.0 | 17.0 | 0.00 | 0.00 | 0.00 | 26 | 1006.9 |
| 20260504173937 | 81 | 0 | 10.0 | 19.0 | 0.00 | 0.00 | 0.00 | 26 | 1006.9 |
| 20260504173708 | 80 | 275 | 12.0 | 21.0 | 0.00 | 0.00 | 0.00 | 26 | 1007.0 |
| 20260504172935 | 80 | 265 | 12.0 | 21.0 | 0.00 | 0.00 | 0.00 | 26 | 1007.1 |
| 20260504172707 | 80 | 299 | 13.0 | 21.0 | 0.00 | 0.00 | 0.00 | 27 | 1007.2 |
| 20260504171933 | 80 | 275 | 14.0 | 26.0 | 0.00 | 0.00 | 0.00 | 26 | 1007.2 |
| 20260504171432 | 80 | 255 | 13.0 | 26.0 | 0.00 | 0.00 | 0.00 | 26 | 1007.4 |
| 20260504170933 | 80 | 281 | 12.0 | 21.0 | 0.00 | 0.00 | 0.00 | 27 | 1007.3 |
| 20260504170702 | 80 | 314 | 12.0 | 19.0 | 0.00 | 0.00 | 0.00 | 27 | 1007.4 |
| 20260504170202 | 80 | 249 | 10.0 | 19.0 | 0.00 | 0.00 | 0.00 | 27 | 1007.4 |
| 20260504160423 | 74 | 243 | 8.0 | 15.0 | 0.00 | 0.00 | 0.00 | 37 | 1008.2 |
| 20260504150918 | 70 | 263 | 8.0 | 15.0 | 0.00 | 0.00 | 0.00 | 44 | 1008.7 |
| 20260504150417 | 69 | 277 | 9.0 | 14.0 | 0.00 | 0.00 | 0.00 | 46 | 1008.8 |
| 20260504140910 | 65 | 265 | 9.0 | 15.0 | 0.00 | 0.00 | 0.00 | 52 | 1008.7 |
| 20260504140410 | 64 | 251 | 9.0 | 15.0 | 0.00 | 0.00 | 0.00 | 53 | 1008.8 |
| 20260504130356 | 61 | 250 | 9.0 | 16.0 | 0.00 | 0.00 | 0.00 | 57 | 1008.4 |
| 20260504130128 | 61 | 245 | 9.0 | 14.0 | 0.00 | 0.00 | 0.00 | 58 | 1008.3 |